KI5QWQ Weather Reports


Display with metric or nautical units.
time (UTC)temp
F
wind
direction
speed
MPH
gust
MPH
rain 1hr
in
rain 24hr
in
rain mn
in
humidity
%
barometer
mb
20260503221145 0 228 1.0 3.0 0.00 0.00 0.00 1020.6
20260503220642 0 215 0.0 8.0 0.00 0.00 0.00 1020.7
20260503220138 0 219 2.0 4.0 0.00 0.00 0.00 1020.6
20260503215636 0 237 1.0 2.0 0.00 0.00 0.00 1021.1
20260503215132 0 180 2.0 7.0 0.00 0.00 0.00 1021.1
20260503214631 0 224 0.0 3.0 0.00 0.00 0.00 1021.1
20260503214126 0 170 3.0 6.0 0.00 0.00 0.00 1021.1
20260503213620 0 209 3.0 3.0 0.00 0.00 0.00 1021.2
20260503213116 0 148 1.0 2.0 0.00 0.00 0.00 1021.3
20260503212614 0 96 0.0 4.0 0.00 0.00 0.00 1021.3
20260503212111 0 190 3.0 3.0 0.00 0.00 0.00 1021.8
20260503211609 0 151 2.0 4.0 0.00 0.00 0.00 1021.8
20260503211104 0 187 1.0 8.0 0.00 0.00 0.00 1021.8
20260503210601 0 263 3.0 4.0 0.00 0.00 0.00 1021.8
20260503210056 0 163 2.0 4.0 0.00 0.00 0.00 1021.8
20260503205553 0 151 5.0 14.0 0.00 0.00 0.00 1021.8
20260503205049 0 196 2.0 3.0 0.00 0.00 0.00 1022.2
20260503204547 0 185 3.0 9.0 0.00 0.00 0.00 1022.2
20260503204044 0 179 2.0 3.0 0.00 0.00 0.00 1022.4
20260503203541 0 208 1.0 5.0 0.00 0.00 0.00 1022.4
20260503203038 0 245 2.0 7.0 0.00 0.00 0.00 1022.4
20260503202536 0 188 5.0 8.0 0.00 0.00 0.00 1022.6
20260503202034 0 160 2.0 3.0 0.00 0.00 0.00 1022.7
20260503201532 0 218 1.0 4.0 0.00 0.00 0.00 1022.9
20260503201028 0 168 2.0 8.0 0.00 0.00 0.00 1022.9
20260503200524 0 182 2.0 8.0 0.00 0.00 0.00 1022.9
20260503200021 0 127 3.0 7.0 0.00 0.00 0.00 1022.9
20260503195519 0 233 2.0 7.0 0.00 0.00 0.00 1022.9
20260503195015 0 214 3.0 6.0 0.00 0.00 0.00 1022.9
20260503194513 0 171 4.0 8.0 0.00 0.00 0.00 1022.9
20260503194012 0 189 1.0 6.0 0.00 0.00 0.00 1023.3
20260503193509 0 104 1.0 3.0 0.00 0.00 0.00 1023.3
20260503193004 0 179 2.0 5.0 0.00 0.00 0.00 1023.2
20260503192501 0 224 1.0 3.0 0.00 0.00 0.00 1023.3
20260503191956 0 251 2.0 3.0 0.00 0.00 0.00 1023.3
20260503191454 0 180 2.0 5.0 0.00 0.00 0.00 1023.5
20260503190950 0 135 4.0 7.0 0.00 0.00 0.00 1023.5
20260503190447 0 166 5.0 7.0 0.00 0.00 0.00 1023.8
20260503185944 0 196 2.0 7.0 0.00 0.00 0.00 1023.7
20260503185441 0 245 0.0 5.0 0.00 0.00 0.00 1023.8
20260503184940 0 207 3.0 4.0 0.00 0.00 0.00 1023.9
20260503184437 0 257 2.0 3.0 0.00 0.00 0.00 1024.0
20260503183933 0 215 2.0 12.0 0.00 0.00 0.00 1024.2
20260503183430 0 207 2.0 4.0 0.00 0.00 0.00 1024.3
20260503182927 0 178 1.0 4.0 0.00 0.00 0.00 1024.3
20260503182426 0 236 2.0 4.0 0.00 0.00 0.00 1024.4
20260503181923 0 205 3.0 6.0 0.00 0.00 0.00 1024.6
20260503181420 0 210 2.0 6.0 0.00 0.00 0.00 1024.6
20260503180916 0 117 2.0 6.0 0.00 0.00 0.00 1024.6
20260503180414 0 219 2.0 3.0 0.00 0.00 0.00 1025.0
20260503175910 0 282 1.0 7.0 0.00 0.00 0.00 1024.9
20260503175409 0 160 4.0 6.0 0.00 0.00 0.00 1024.9
20260503174904 0 201 1.0 2.0 0.00 0.00 0.00 1025.1
20260503174403 0 9 0.0 7.0 0.00 0.00 0.00 1025.1
20260503173857 0 220 2.0 3.0 0.00 0.00 0.00 1025.2
20260503173354 0 237 2.0 3.0 0.00 0.00 0.00 1025.2
20260503172850 0 213 2.0 3.0 0.00 0.00 0.00 1025.3
20260503172348 0 334 1.0 3.0 0.00 0.00 0.00 1025.5
20260503171844 0 214 0.0 2.0 0.00 0.00 0.00 1025.6
20260503171341 0 232 1.0 4.0 0.00 0.00 0.00 1025.5
20260503170838 0 236 3.0 4.0 0.00 0.00 0.00 1025.6
20260503170335 0 197 0.0 3.0 0.00 0.00 0.00 1025.9
20260503150727 0 266 1.0 3.0 0.00 0.00 0.00 1026.4
20260503150223 0 276 1.0 3.0 0.00 0.00 0.00 1026.6
20260503140147 0 255 1.0 3.0 0.00 0.00 0.00 1026.2
20260503131117 0 172 0.0 2.0 0.00 0.00 0.00 1026.0
20260503130615 0 193 1.0 3.0 0.00 0.00 0.00 1026.0
20260503130112 0 97 0.0 2.0 0.00 0.00 0.00 1026.1
20260503110505 0 224 0.0 1.0 0.00 0.00 0.00 1024.9
20260503090350 0 63 0.0 1.0 0.00 0.00 0.00 1024.6
20260503081318 0 104 0.0 2.0 0.00 0.00 0.00 1024.5
20260503080814 0 38 0.0 2.0 0.00 0.00 0.00 1024.6
20260503080311 0 84 0.0 2.0 0.00 0.00 0.00 1024.6
20260503072748 0 59 0.0 2.0 0.00 0.00 0.00 1024.8
20260503072245 0 42 1.0 2.0 0.00 0.00 0.00 1024.5
20260503071741 0 92 1.0 2.0 0.00 0.00 0.00 1024.8
20260503071238 0 58 0.0 2.0 0.00 0.00 0.00 1024.6
20260503070734 0 340 0.0 2.0 0.00 0.00 0.00 1024.6
20260503070232 0 110 1.0 2.0 0.00 0.00 0.00 1024.9
20260503060157 0 62 0.0 2.0 0.00 0.00 0.00 1024.9
20260503054644 0 112 0.0 2.0 0.00 0.00 0.00 1025.0
20260503054141 0 89 0.0 1.0 0.00 0.00 0.00 1024.9
20260503053639 0 58 0.0 1.0 0.00 0.00 0.00 1025.0
20260503053138 0 32 0.0 1.0 0.00 0.00 0.00 1025.0
20260503052634 0 147 0.0 1.0 0.00 0.00 0.00 1025.2
20260503052130 0 147 0.0 1.0 0.00 0.00 0.00 1025.2
20260503051625 0 126 0.0 2.0 0.00 0.00 0.00 1025.1
20260503051124 0 35 0.0 2.0 0.00 0.00 0.00 1025.0
20260503050620 0 101 1.0 2.0 0.00 0.00 0.00 1025.0
20260503050116 0 82 0.0 2.0 0.00 0.00 0.00 1024.8
20260503045614 0 89 0.0 2.0 0.00 0.01 0.01 1024.9
20260503045111 0 89 0.0 2.0 0.00 0.01 0.01 1024.8
20260503044608 0 135 0.0 1.0 0.00 0.01 0.01 1024.8
20260503044105 0 230 0.0 2.0 0.00 0.01 0.01 1024.8
20260503043601 0 89 1.0 2.0 0.00 0.01 0.01 1024.7
20260503043058 0 84 0.0 2.0 0.00 0.01 0.01 1024.8
20260503042555 0 111 0.0 2.0 0.00 0.01 0.01 1024.6
20260503042051 0 127 1.0 2.0 0.00 0.01 0.01 1024.7
20260503041548 0 89 0.0 2.0 0.00 0.01 0.01 1024.5
20260503041046 0 93 0.0 2.0 0.00 0.01 0.01 1024.7
20260503040543 0 111 0.0 2.0 0.00 0.01 0.01 1024.8
20260503040040 0 57 0.0 2.0 0.00 0.01 0.01 1024.5
20260503035537 0 122 0.0 1.0 0.00 0.01 0.01 1024.7
20260503035034 0 101 0.0 2.0 0.00 0.01 0.01 1024.7
20260503034531 0 89 0.0 2.0 0.00 0.01 0.01 1024.6
20260503034029 0 120 0.0 2.0 0.00 0.01 0.01 1024.5
20260503033526 0 75 0.0 2.0 0.00 0.01 0.01 1024.4
20260503033024 0 120 0.0 2.0 0.00 0.01 0.01 1024.3
20260503032522 0 109 0.0 1.0 0.00 0.01 0.01 1024.3
20260503032020 0 57 0.0 2.0 0.00 0.01 0.01 1024.5
20260503031517 0 203 0.0 2.0 0.00 0.01 0.01 1024.3
20260503031014 0 126 0.0 2.0 0.00 0.01 0.01 1024.2
20260503030510 0 50 0.0 1.0 0.00 0.01 0.01 1024.3
20260503030007 0 89 0.0 2.0 0.00 0.01 0.01 1024.3
20260503025504 0 89 0.0 2.0 0.00 0.01 0.01 1024.2
20260503025001 0 130 0.0 2.0 0.00 0.01 0.01 1024.1
20260503024457 0 114 1.0 2.0 0.00 0.01 0.01 1024.1
20260503023955 0 125 0.0 2.0 0.00 0.01 0.01 1023.9
20260503023452 0 93 1.0 2.0 0.00 0.01 0.01 1023.8
20260503022949 0 104 0.0 1.0 0.00 0.01 0.01 1023.8
20260503022444 0 119 0.0 1.0 0.00 0.01 0.01 1023.5
20260503021940 0 134 0.0 2.0 0.00 0.01 0.01 1023.5
20260503021436 0 157 0.0 2.0 0.00 0.01 0.01 1023.5
20260503020934 0 71 0.0 1.0 0.00 0.01 0.01 1023.4
20260503020432 0 75 0.0 1.0 0.00 0.01 0.01 1023.5
20260503015928 0 129 0.0 1.0 0.00 0.01 0.01 1023.5
20260503015424 0 153 0.0 1.0 0.00 0.01 0.01 1023.5
20260503014920 0 230 0.0 1.0 0.00 0.01 0.01 1023.3
20260503014418 0 140 0.0 2.0 0.00 0.01 0.01 1023.3
20260503013916 0 104 0.0 1.0 0.00 0.01 0.01 1023.4
20260503013412 0 25 0.0 1.0 0.00 0.01 0.01 1023.4
20260503012910 0 212 0.0 1.0 0.00 0.01 0.01 1023.3
20260503012408 0 209 0.0 2.0 0.00 0.01 0.01 1023.3
20260503011904 0 153 0.0 1.0 0.00 0.01 0.01 1023.1
20260503011401 0 217 0.0 1.0 0.00 0.01 0.01 1023.1
20260503010857 0 235 0.0 1.0 0.00 0.01 0.01 1023.1
20260503010354 0 217 0.0 2.0 0.00 0.01 0.01 1022.9
20260503005851 0 225 0.0 1.0 0.00 0.01 0.01 1023.1
20260503005349 0 129 0.0 1.0 0.00 0.01 0.01 1023.0
20260503004844 0 255 0.0 2.0 0.00 0.01 0.01 1023.1
20260503004342 0 233 0.0 2.0 0.00 0.01 0.01 1022.7
20260503003840 0 124 0.0 1.0 0.00 0.01 0.01 1022.9
20260503003336 0 160 0.0 2.0 0.00 0.01 0.01 1022.9
20260503002833 0 117 0.0 2.0 0.00 0.01 0.01 1022.7
20260503002331 0 195 0.0 2.0 0.00 0.01 0.01 1022.8
20260503001827 0 142 0.0 2.0 0.00 0.01 0.01 1022.9
20260503001323 0 129 0.0 1.0 0.00 0.01 0.01 1022.8
20260503000821 0 100 1.0 3.0 0.00 0.01 0.01 1022.9
20260503000319 0 129 0.0 1.0 0.00 0.01 0.01 1022.7
20260502235815 0 197 0.0 2.0 0.00 0.01 0.01 1022.7
20260502235312 0 170 3.0 3.0 0.00 0.01 0.01 1022.6
20260502234809 0 117 0.0 2.0 0.00 0.01 0.01 1022.8
20260502234306 0 142 0.0 3.0 0.00 0.01 0.01 1022.6
20260502233802 0 279 0.0 2.0 0.00 0.01 0.01 1022.6
20260502233259 0 321 0.0 3.0 0.00 0.01 0.01 1022.6
20260502232755 0 313 0.0 3.0 0.00 0.01 0.01 1022.6
20260502232252 0 18 3.0 4.0 0.00 0.01 0.01 1022.6
20260502231748 0 299 0.0 2.0 0.00 0.01 0.01 1022.6
20260502231246 0 74 3.0 4.0 0.00 0.01 0.01 1022.6
20260502230745 0 302 2.0 3.0 0.00 0.01 0.01 1022.6
20260502230243 0 292 3.0 6.0 0.00 0.01 0.01 1022.4
20260502225739 0 312 2.0 3.0 0.00 0.01 0.01 1022.5
20260502225236 0 37 0.0 1.0 0.00 0.01 0.01 1022.5
20260502224732 0 143 0.0 3.0 0.00 0.01 0.01 1022.4
20260502224229 0 321 2.0 3.0 0.00 0.01 0.01 1022.5
20260502223726 0 176 1.0 2.0 0.00 0.01 0.01 1022.7
20260502223224 0 54 1.0 4.0 0.00 0.01 0.01 1022.6
20260502222722 0 114 2.0 3.0 0.00 0.01 0.01 1022.7
20260502222218 0 148 0.0 2.0 0.00 0.01 0.01 1022.7
20260502221714 0 145 3.0 3.0 0.00 0.01 0.01 1022.8